[[{"header":{"parameterUnit":"m.s-1","parameterCategory":1,"la1":30.2991,"la2":30.254,"lo1":-89.0895,"lo2":-89.0444,"dy":0.0017,"dx":0.0017,"nx":28,"ny":28,"refTime":"2023-09-07T09:00:00:Z","depth":0,"parameterNumber":2,"parameterNumberName":"U-component_of_WINDS"},"data":[0,0,0,0,0,0,0,0,0,0,0,0,0,0,0,0,0,0,0,0,0,0,0,0,0,0,0,0,0,0,0,0,0,0,0,0,0,0,0,0,0,0,0,0,0,0,0,0,0,0,0,0,0,0,0,0,0,0,0.2019,0.202,0,0.2074,0.2075,0.2075,0.2101,0.2101,0.2101,0.2101,0.2162,0.2163,0.2165,0,0,0,0,0,0,0,0,0,0,0,0,0,0.1942,0.1943,0.2019,0.202,0.202,0.2074,0.2075,0.2076,0.2101,0.2101,0.2101,0.2101,0.2161,0.2163,0.2165,0,0,0,0,0,0,0,0,0,0,0,0,0,0.1984,0.1943,0.2019,0.2039,0.2042,0.2074,0.2075,0.2076,0.2101,0.2101,0.2101,0.2101,0.216,0.2163,0.2165,0.2183,0,0,0.2173,0.2174,0,0,0,0,0,0,0,0,0.1981,0.1987,0.2036,0.2038,0.2041,0.208,0.207,0.2112,0.2101,0.2079,0.2101,0.2101,0.2135,0.214,0.215,0.2186,0.2188,0.2173,0.2175,0.2176,0.2177,0,0,0,0,0,0,0,0.1979,0.1985,0.2041,0.2036,0.204,0.2048,0.2054,0.2078,0.2107,0.2081,0.2082,0.2088,0.2136,0.2148,0.2152,0.2189,0.2173,0.2176,0.2177,0.2178,0.2245,0.2245,0,0,0,0,0,0,0.1972,0.1982,0.2039,0.2043,0.201,0.2049,0.2056,0.2068,0.2107,0.2112,0.2088,0.2089,0.2144,0.2149,0.2154,0.2179,0.2176,0.2178,0.218,0.2244,0.2245,0.2245,0,0,0,0,0,0,0.197,0.1976,0.2037,0.2013,0.2021,0.2051,0.2064,0.2069,0.208,0.2112,0.2118,0.2094,0.2144,0.2151,0.2176,0.2181,0.2179,0.2182,0.2244,0.2244,0.2245,0.2227,0,0,0,0,0,0,0.1967,0.1976,0.1981,0.2013,0.2022,0.2056,0.2064,0.207,0.2084,0.2086,0.212,0.2125,0.2144,0.2172,0.2178,0.2185,0.2184,0.2244,0.2244,0.2245,0.2227,0.2226,0.2226,0,0,0,0,0,0.1965,0.1974,0.1981,0.1988,0.2029,0.2056,0.2062,0.2082,0.2084,0.2091,0.2112,0.2124,0.2179,0.2174,0.2182,0.2189,0.2243,0.2244,0.2245,0.2227,0.2227,0.2226,0,0,0,0,0,0,0.1943,0.1978,0.1987,0.2006,0.2028,0.206,0.2069,0.208,0.2103,0.2104,0.2129,0.2137,0.216,0.2177,0.2171,0.2209,0.2213,0.2215,0.2197,0.2197,0.2196,0.2192,0.2186,0,0,0,0,0,0.194,0.1957,0.1988,0.2003,0.2013,0.2039,0.2051,0.2065,0.2089,0.2099,0.2122,0.2146,0.2169,0.2184,0.2207,0.223,0.2239,0.2239,0.2238,0.2237,0.2239,0.2255,0.2256,0.2247,0.2247,0.2247,0,0,0.1936,0.1957,0.1966,0.1999,0.2017,0.2036,0.2047,0.2066,0.2081,0.2102,0.2127,0.2145,0.2174,0.2199,0.2211,0.2214,0.2244,0.2238,0.2237,0.224,0.2256,0.2257,0.2257,0.2247,0.2247,0.2247,0,0,0.1936,0.1953,0.1968,0.1986,0.2014,0.2031,0.2035,0.2066,0.2078,0.2104,0.2121,0.2141,0.2179,0.22,0.2215,0.2226,0.2239,0.2233,0.2231,0.2246,0.2247,0.2247,0.2253,0.2255,0.2235,0.2235,0.2235,0,0.1927,0.1954,0.1975,0.1993,0.2008,0.2028,0.2045,0.2062,0.2096,0.2107,0.2109,0.2159,0.218,0.2211,0.2214,0.2225,0.2232,0.2229,0.2245,0.2246,0.2247,0.2253,0.2254,0.2234,0.2234,0.2234,0.2234,0,0.1943,0.1962,0.1971,0.2002,0.2018,0.2036,0.2061,0.2075,0.2088,0.2107,0.2134,0.216,0.2189,0.2198,0.2211,0.2231,0.2232,0.2239,0.2244,0.2246,0.2252,0.2255,0.2233,0.2233,0.2233,0.2233,0,0,0.1931,0.1974,0.1977,0.1992,0.2025,0.2041,0.2061,0.2088,0.2101,0.2125,0.2143,0.2177,0.2184,0.2202,0.2218,0.2231,0.2241,0.2237,0.2238,0.2238,0.2267,0.2262,0.2264,0.2249,0.225,0.225,0.2265,0,0.1937,0.1971,0.1991,0.2018,0.2037,0.2057,0.2075,0.2098,0.2116,0.2137,0.2158,0.2181,0.2188,0.2199,0.2213,0.2236,0.2247,0.2235,0.2269,0.227,0.2261,0.2267,0.2261,0.2274,0.2268,0.2268,0.2268,0,0.1948,0.197,0.1999,0.2031,0.204,0.2055,0.2083,0.2102,0.213,0.2142,0.2163,0.2179,0.2204,0.2206,0.2241,0.2233,0.2248,0.2262,0.2263,0.2268,0.2269,0.2273,0.2279,0.2281,0.2272,0.2272,0.2271,0,0.1938,0.1975,0.1998,0.201,0.2048,0.2058,0.2075,0.2102,0.2119,0.2144,0.2155,0.2184,0.22,0.2222,0.2247,0.2246,0.2281,0.2285,0.2294,0.2294,0.2301,0.23,0.231,0.2309,0.2309,0.2309,0.2309,0,0.1943,0.196,0.1994,0.2007,0.2028,0.2052,0.2073,0.2091,0.2116,0.2136,0.2155,0.2174,0.2205,0.2228,0.2248,0.2275,0.2282,0.2295,0.23,0.2293,0.2292,0.2304,0.2304,0.2309,0.2309,0.2309,0.2309,0,0.1935,0.1958,0.1984,0.2018,0.2027,0.2041,0.2071,0.2087,0.2106,0.2131,0.2138,0.217,0.2198,0.2225,0.2263,0.2277,0.2305,0.2311,0.2295,0.2298,0.2306,0.2306,0.2326,0.233,0.2325,0.2325,0.2325,0,0.1937,0.1951,0.1986,0.2,0.2016,0.2038,0.2054,0.2079,0.2096,0.213,0.2143,0.2172,0.2197,0.2242,0.227,0.2301,0.2308,0.2313,0.2313,0.2307,0.231,0.2309,0.2312,0.2313,0.2313,0.2313,0.2313,0,0.1939,0.195,0.1972,0.1999,0.2018,0.204,0.2064,0.2075,0.2105,0.2123,0.2152,0.2171,0.2211,0.2241,0.2275,0.2295,0.231,0.2313,0.2317,0.231,0.2301,0.2308,0.2295,0.2312,0.2312,0.2312,0.2312,0.2312,0.1937,0.1951,0.1978,0.2003,0.2023,0.2045,0.2061,0.2083,0.2107,0.214,0.2154,0.2184,0.2215,0.2261,0.2281,0.2306,0.231,0.2315,0.2317,0.2318,0.2317,0.2296,0.2313,0.2313,0.2313,0.2313,0.2313,0,0.1941,0.1959,0.1982,0.2014,0.2034,0.2045,0.2072,0.2089,0.2114,0.2141,0.2165,0.22,0.223,0.226,0.2293,0.2307,0.2315,0.2315,0.2315,0.232,0.2312,0.2305,0.2308,0.2308,0.2308,0.2308,0.2308,0.2308,0.1945,0.1969,0.1984,0.2019,0.2039,0.2067,0.2082,0.2103,0.2124,0.2161,0.2186,0.2205,0.2235,0.227,0.2299,0.2307,0.2319,0.2317,0.2328,0.232,0.232,0.232,0.2314,0.2319,0.2319,0.2334,0.2334,0.2334]},{"header":{"parameterUnit":"m.s-1","parameterCategory":1,"la1":30.2991,"la2":30.254,"lo1":-89.0895,"lo2":-89.0444,"dy":0.0017,"dx":0.0017,"nx":28,"ny":28,"refTime":"2023-09-07T09:00:00:Z","depth":0,"parameterNumber":3,"parameterNumberName":"V-component_of_WINDS"},"data":[0,0,0,0,0,0,0,0,0,0,0,0,0,0,0,0,0,0,0,0,0,0,0,0,0,0,0,0,0,0,0,0,0,0,0,0,0,0,0,0,0,0,0,0,0,0,0,0,0,0,0,0,0,0,0,0,0,0,0.0288,0.0291,0,0.0518,0.0521,0.0524,0.0493,0.0489,0.0485,0.0482,0.0717,0.0727,0.0736,0,0,0,0,0,0,0,0,0,0,0,0,0,-0.0184,-0.0175,0.0288,0.0291,0.0294,0.0518,0.0521,0.0524,0.0493,0.0489,0.0484,0.048,0.0714,0.0726,0.0737,0,0,0,0,0,0,0,0,0,0,0,0,0,0.0031,-0.0172,0.0287,0.0305,0.0309,0.0517,0.0521,0.0525,0.0494,0.0489,0.0483,0.0478,0.071,0.0724,0.0739,0.0944,0,0,0.0784,0.079,0,0,0,0,0,0,0,0,0.0019,0.0049,0.03,0.0304,0.0309,0.0471,0.0441,0.0665,0.0496,0.0424,0.0481,0.0475,0.064,0.066,0.0716,0.0955,0.0965,0.0785,0.0794,0.0801,0.0805,0,0,0,0,0,0,0,0.0004,0.0039,0.0379,0.0303,0.0309,0.03,0.0324,0.0483,0.0561,0.043,0.0428,0.0456,0.0641,0.0702,0.0721,0.0968,0.0785,0.0798,0.0807,0.0813,0.1379,0.1385,0,0,0,0,0,0,-0.0015,0.0026,0.0372,0.0386,0.0147,0.0313,0.034,0.0425,0.0559,0.0574,0.0461,0.0454,0.0679,0.0704,0.0729,0.0973,0.08,0.0814,0.0823,0.1372,0.138,0.1387,0,0,0,0,0,0,-0.0025,0.0016,0.0362,0.0206,0.0249,0.0327,0.0422,0.0432,0.0493,0.0582,0.0596,0.0508,0.0676,0.0708,0.0889,0.098,0.0821,0.0834,0.1365,0.1375,0.1383,0.1464,0,0,0,0,0,0,-0.0038,0.0013,0.0093,0.0208,0.0258,0.052,0.0428,0.0441,0.0518,0.0511,0.0631,0.0645,0.0674,0.0867,0.0903,0.0998,0.0846,0.1357,0.1369,0.138,0.1454,0.1475,0.1493,0,0,0,0,0,-0.0055,0.0109,0.0098,0.0139,0.036,0.0526,0.0554,0.0584,0.0526,0.0606,0.0662,0.0641,0.0965,0.0886,0.0927,0.1027,0.1352,0.1366,0.138,0.1445,0.1471,0.1493,0,0,0,0,0,0,0.0005,0.0124,0.0113,0.0319,0.0412,0.052,0.0623,0.0612,0.0724,0.0713,0.0745,0.0772,0.0953,0.1008,0.0918,0.1228,0.115,0.1173,0.1185,0.1211,0.123,0.1212,0.0858,0,0,0,0,0,0.0042,0.0167,0.0265,0.0437,0.0484,0.0545,0.0619,0.0633,0.073,0.077,0.084,0.0935,0.1057,0.1137,0.1256,0.1461,0.1484,0.155,0.1569,0.1585,0.1604,0.171,0.1739,0.1433,0.1432,0.1432,0,0,0.012,0.02,0.0278,0.045,0.0524,0.0651,0.0579,0.0718,0.0811,0.0791,0.0964,0.1018,0.1126,0.1318,0.1406,0.137,0.1693,0.1603,0.1615,0.1625,0.1727,0.1756,0.1782,0.1442,0.144,0.1439,0,0,0.0326,0.0402,0.055,0.0624,0.0736,0.0774,0.0809,0.0918,0.0953,0.1127,0.1112,0.1223,0.1435,0.151,0.1576,0.1802,0.1785,0.184,0.1943,0.2046,0.207,0.2092,0.2167,0.2195,0.1859,0.1859,0.1859,0,0.0409,0.0601,0.0628,0.0767,0.084,0.0826,0.0974,0.1044,0.1189,0.1239,0.1196,0.1456,0.1528,0.1734,0.1788,0.1844,0.1882,0.1826,0.2065,0.2086,0.2107,0.2179,0.2208,0.1864,0.1864,0.1863,0.1863,0,0.0694,0.0827,0.0933,0.107,0.1156,0.1299,0.1345,0.1428,0.1433,0.1475,0.1648,0.1733,0.1865,0.1915,0.1923,0.2121,0.2093,0.2058,0.1979,0.2141,0.2209,0.2238,0.1872,0.187,0.1869,0.1867,0,0,0.0949,0.1094,0.1132,0.1191,0.131,0.1412,0.1551,0.1679,0.1747,0.1846,0.196,0.2136,0.2101,0.2176,0.2191,0.2282,0.2448,0.2234,0.2237,0.2267,0.2664,0.2688,0.272,0.2438,0.2443,0.2448,0.2653,0,0.1163,0.141,0.1435,0.1655,0.1774,0.1759,0.1879,0.1964,0.2005,0.211,0.2156,0.2278,0.2225,0.2269,0.2358,0.2409,0.2528,0.2395,0.2541,0.2546,0.2512,0.2757,0.2785,0.2975,0.2681,0.2685,0.2689,0,0.1448,0.1551,0.1782,0.1877,0.1929,0.2037,0.2151,0.2254,0.2347,0.237,0.2449,0.2451,0.259,0.2507,0.2697,0.2605,0.2666,0.27,0.2707,0.2721,0.2626,0.2773,0.3038,0.3064,0.2732,0.2729,0.2726,0,0.1604,0.1801,0.1963,0.2015,0.2132,0.2207,0.2259,0.2346,0.2418,0.2518,0.2564,0.268,0.2742,0.283,0.286,0.2798,0.3047,0.2967,0.3066,0.3065,0.3119,0.3115,0.3393,0.3163,0.3163,0.3162,0.3162,0,0.184,0.1981,0.2034,0.2134,0.2288,0.2314,0.2467,0.2515,0.2591,0.2696,0.2691,0.279,0.2825,0.2929,0.2954,0.3104,0.3134,0.3153,0.3157,0.3152,0.3149,0.3191,0.3178,0.317,0.3168,0.3167,0.3166,0,0.2041,0.2083,0.2257,0.2351,0.2378,0.2488,0.2567,0.2661,0.2698,0.2832,0.2864,0.2923,0.3044,0.3083,0.3231,0.3247,0.342,0.3415,0.3388,0.3388,0.3483,0.3472,0.3796,0.3838,0.3584,0.3586,0.3588,0,0.2188,0.2295,0.2399,0.2468,0.2522,0.2636,0.2708,0.2736,0.2811,0.292,0.2999,0.3119,0.3216,0.3409,0.3464,0.3574,0.3569,0.3675,0.3586,0.3575,0.3565,0.3557,0.3565,0.3691,0.3694,0.3696,0.3698,0,0.2442,0.2455,0.256,0.2671,0.2756,0.2845,0.293,0.2988,0.3026,0.3111,0.3233,0.3308,0.3455,0.3572,0.3683,0.3734,0.3721,0.3725,0.3753,0.3748,0.3726,0.3734,0.343,0.3718,0.3716,0.3714,0.3713,0.3712,0.2618,0.271,0.2795,0.291,0.2976,0.3054,0.3144,0.3191,0.3294,0.3415,0.3424,0.3555,0.3638,0.3786,0.3841,0.3942,0.3911,0.3953,0.3963,0.3972,0.3977,0.3711,0.3963,0.3962,0.3962,0.3961,0.3961,0,0.2868,0.292,0.3025,0.3142,0.3231,0.321,0.3302,0.3377,0.3492,0.357,0.3664,0.3801,0.3912,0.3973,0.4083,0.4151,0.4148,0.4179,0.4173,0.4183,0.4001,0.3964,0.418,0.418,0.418,0.418,0.418,0.4179,0.3008,0.316,0.3182,0.3365,0.3416,0.3543,0.3596,0.3666,0.3728,0.3881,0.3973,0.4011,0.4081,0.4194,0.4294,0.4308,0.4347,0.4381,0.4392,0.422,0.4197,0.4176,0.4141,0.4391,0.4391,0.4566,0.4567,0.4568]}]]